Home > Weather > Tau > Past weeks

Flag for Norway Weather for the Past 2 Weeks in Tau, Norway

Now
45 °F

Broken clouds.


Feels Like: 38 °F
Forecast: 36 / 39 °F
Wind: 14 mph from South

Location: Stavanger / Sola

Current Time: Feb 7, 2016 at 11:56:08 AM

Latest Report: Feb 7, 2016 at 11:20 AM


Visibility: N/A

Pressure: 29.00 "Hg

Humidity: 93%

Dew point: 43 °F

Location of TauLocation

Historic Weather in Tau — Graph

°F

Tau Temperature Yesterday

Maximum temperature yesterday: 46 °F (at 12:20 AM)
Minimum temperature yesterday: 41 °F (at 8:50 AM)
Average temperature yesterday: 44 °F

High & Low Weather Summary for the Past Weeks

 TemperatureHumidityPressure
High52 °F (Jan 25, 12:20 PM)100% (Jan 24, 7:50 AM)30.18 "Hg (Jan 24, 7:50 AM)
Low30 °F (Feb 4, 9:20 PM)56% (Jan 31, 10:20 PM)28.77 "Hg (Feb 2, 1:50 PM)
Average42 °F84%29.49 "Hg
* Reported Jan 23 10:20 AM — Feb 7 10:50 AM, Tau, Weather by CustomWeather, © 2016

Note: Actual official high and low records may vary slightly from our data, if they occured in-between our weather recording intervals... More about our weather records

Advertising

Tau Weather History for the Previous 24 Hours

 ConditionsComfort  
Time TempWeatherWind HumidityBarometerVisibility
10:50 AM
Sun, Feb 7
46 °FLight rain. Broken clouds.21 mph87%29.00 "Hg4 mi
10:20 AM46 °FLight rain. Partly sunny.23 mph93%28.97 "Hg6 mi
9:50 AM46 °FRain. Broken clouds.23 mph87%28.97 "Hg6 mi
9:20 AM46 °FRain. Broken clouds.24 mph87%28.97 "Hg6 mi
8:50 AM46 °FRain. Broken clouds.24 mph87%28.97 "Hg6 mi
8:20 AM46 °FRain. Passing clouds.23 mph87%29.00 "Hg6 mi
7:50 AM46 °FRain. Passing clouds.23 mph87%29.00 "Hg5 mi
7:20 AM46 °FLight rain. Passing clouds.24 mph87%29.00 "Hg5 mi
6:50 AM46 °FPassing clouds.23 mph87%29.03 "Hg5 mi
6:20 AM46 °FPassing clouds.22 mph87%29.03 "Hg4 mi
5:50 AM46 °FPartly cloudy.23 mph87%29.06 "Hg4 mi
4:50 AM46 °FPassing clouds.22 mph87%29.06 "Hg2 mi
3:50 AM46 °FLight rain. Passing clouds.23 mph93%29.06 "Hg3 mi
2:50 AM46 °FPassing clouds.22 mph93%29.09 "Hg3 mi
1:50 AM46 °FLight rain. Passing clouds.24 mph93%29.09 "Hg3 mi
12:50 AM46 °FLight rain. Partly cloudy.23 mph93%29.12 "Hg3 mi
11:50 PM
Sat, Feb 6
46 °FLight rain. Passing clouds.23 mph93%29.12 "Hg4 mi
11:20 PM46 °FPassing clouds.23 mph93%29.12 "Hg2 mi
10:50 PM46 °FRain. Passing clouds.22 mph93%29.15 "Hg2 mi
9:50 PM46 °FRain. Mostly cloudy.22 mph87%29.18 "Hg4 mi
9:20 PM45 °FRain. Mostly cloudy.20 mph93%29.18 "Hg4 mi
8:50 PM45 °FLight rain. Partly cloudy.20 mph87%29.18 "Hg5 mi
8:20 PM43 °FLight rain. Passing clouds.20 mph87%29.21 "Hg6 mi
7:50 PM43 °FLight rain. Passing clouds.18 mph81%29.24 "HgN/A
7:20 PM41 °FLight rain. Partly cloudy.13 mph81%29.27 "HgN/A
6:50 PM41 °FLight rain. Partly cloudy.15 mph81%29.30 "HgN/A
6:20 PM43 °FLight rain. Partly cloudy.12 mph76%29.33 "HgN/A
5:50 PM43 °FLight rain. Partly cloudy.13 mph76%29.36 "HgN/A
5:20 PM43 °FPassing clouds.12 mph76%29.36 "HgN/A
4:50 PM43 °FPartly sunny.10 mph81%29.39 "HgN/A
4:20 PM43 °FPartly sunny.9 mph87%29.42 "HgN/A
3:50 PM43 °FBroken clouds.8 mph87%29.42 "HgN/A
3:20 PM43 °FBroken clouds.8 mph87%29.45 "HgN/A
2:50 PM43 °FBroken clouds.9 mph87%29.45 "HgN/A
2:20 PM43 °FBroken clouds.9 mph87%29.47 "HgN/A
1:50 PM43 °FBroken clouds.9 mph87%29.47 "HgN/A
1:20 PM43 °FPartly sunny.8 mph87%29.50 "HgN/A
12:50 PM43 °FBroken clouds.8 mph87%29.50 "HgN/A
12:20 PM43 °FBroken clouds.6 mph87%29.50 "HgN/A
11:50 AM41 °FPartly sunny.6 mph93%29.53 "HgN/A
11:20 AM41 °FPartly sunny.5 mph93%29.50 "HgN/A
Weather by CustomWeather, © 2016

See weather overviewHow to use our weather pages